Location: Cuiry
(49.3858°N, 3.7708°E)
Time: 18:02:44
(UTC+00:00)

ARIANE 5 R/B - Visible Passes

Search period start: 11 April 2026 00:00
Search period end: 21 April 2026 00:00
Orbit: 747 x 792 km, 98.8° (Epoch: 11 April)

Date Brightness Start Highest point End Pass type
(mag) Time Alt. Az. Time Alt. Az. Time Alt. Az.
12 Apr 5.6 19:17:10 10° WSW 19:19:32 13° W 19:21:56 10° WNW visible
15 Apr 5.5 19:08:34 10° SW 19:11:36 16° W 19:14:40 10° NW visible
20 Apr 6.0 19:30:55 10° W 19:31:55 11° W 19:32:56 10° WNW visible
